GFSNE_700_temp_060.txt.gz
Temp
-4 -4 -5 -6 -5 -6 -7 -7 -8 -8 -9 -10 -11 -13 -11 -11 -12 -12 -13 -14 -14 -14 -14 -14 -14 -14 -14 -14 -14 -14 -14 -14 -14 -14 -14 -14 -13 -13
-5 -5 -6 -6 -7 -7 -7 -8 -9 -9 -9 -11 -11 -12 -12 -12 -13 -14 -14 -14 -14 -14 -14 -14 -14 -14 -14 -14 -15 -15 -15 -15 -15 -15 -14 -14 -14 -14
-5 -6 -6 -7 -7 -8 -8 -9 -10 -10 -11 -10 -12 -14 -13 -13 -13 -14 -14 -14 -15 -15 -14 -14 -14 -14 -14 -15 -15 -16 -16 -16 -16 -15 -15 -15 -15 -14
-6 -6 -7 -8 -8 -9 -9 -10 -10 -11 -11 -11 -12 -13 -15 -16 -14 -14 -15 -15 -15 -15 -15 -14 -14 -14 -15 -15 -16 -16 -16 -16 -16 -16 -15 -15 -15 -15
-6 -7 -7 -8 -9 -9 -10 -10 -11 -12 -12 -14 -13 -14 -15 -16 -14 -15 -15 -15 -15 -15 -15 -15 -14 -15 -15 -16 -16 -16 -16 -16 -16 -16 -16 -16 -16 -15
-7 -8 -8 -9 -10 -10 -11 -11 -12 -12 -13 -14 -13 -14 -16 -17 -17 -16 -15 -16 -16 -16 -16 -15 -15 -15 -16 -16 -16 -17 -17 -17 -17 -17 -17 -17 -16 -16
-8 -8 -9 -10 -10 -11 -12 -12 -13 -13 -14 -14 -14 -14 -15 -17 -18 -18 -16 -16 -16 -16 -16 -15 -16 -16 -16 -17 -17 -17 -17 -17 -17 -17 -17 -17 -17 -17
-8 -9 -10 -11 -11 -12 -12 -12 -13 -14 -14 -14 -14 -15 -15 -18 -18 -17 -16 -16 -16 -16 -16 -16 -16 -16 -16 -17 -17 -18 -18 -18 -18 -17 -17 -17 -17 -17
-10 -10 -11 -12 -12 -12 -13 -13 -13 -14 -14 -15 -15 -15 -16 -16 -16 -16 -16 -16 -16 -16 -16 -16 -16 -16 -16 -17 -17 -18 -18 -18 -18 -18 -18 -18 -18 -18
-11 -11 -12 -12 -13 -13 -13 -14 -14 -15 -15 -15 -15 -16 -16 -16 -17 -16 -17 -17 -17 -16 -16 -16 -16 -16 -16 -17 -17 -18 -18 -18 -18 -18 -18 -18 -18 -18
-11 -12 -12 -12 -13 -14 -15 -15 -15 -15 -16 -16 -16 -16 -16 -17 -17 -17 -17 -17 -17 -17 -17 -16 -16 -16 -16 -17 -18 -18 -19 -19 -18 -18 -18 -18 -18 -18
-11 -11 -12 -13 -13 -15 -16 -16 -16 -16 -16 -17 -16 -16 -17 -17 -17 -17 -17 -17 -17 -17 -17 -17 -17 -17 -16 -17 -18 -18 -19 -19 -19 -18 -18 -18 -18 -17
-11 -12 -13 -14 -15 -15 -16 -16 -16 -16 -16 -16 -17 -17 -18 -17 -17 -17 -17 -17 -17 -17 -18 -17 -17 -17 -17 -17 -18 -18 -18 -18 -18 -18 -18 -18 -17 -18
-12 -12 -13 -14 -15 -16 -17 -17 -16 -16 -16 -16 -16 -17 -18 -18 -18 -18 -18 -18 -18 -18 -18 -17 -17 -17 -17 -17 -17 -18 -18 -18 -19 -18 -18 -17 -17 -18
-13 -14 -14 -15 -15 -16 -17 -16 -16 -17 -16 -17 -17 -17 -18 -18 -18 -18 -18 -18 -18 -18 -18 -18 -18 -18 -18 -18 -18 -18 -18 -18 -19 -18 -18 -17 -17 -18
-14 -14 -15 -15 -16 -16 -16 -17 -16 -17 -17 -17 -17 -18 -18 -18 -18 -18 -18 -18 -18 -18 -18 -18 -18 -18 -18 -18 -18 -18 -18 -18 -18 -18 -18 -18 -18 -18
-14 -15 -15 -16 -16 -16 -17 -17 -17 -17 -17 -17 -18 -18 -18 -18 -18 -18 -18 -18 -18 -18 -18 -18 -18 -18 -18 -18 -18 -18 -18 -18 -18 -18 -18 -18 -18 -18
-15 -16 -16 -17 -17 -18 -18 -17 -17 -17 -17 -18 -18 -18 -18 -18 -18 -18 -18 -18 -18 -18 -18 -18 -18 -18 -18 -18 -18 -19 -19 -18 -18 -18 -18 -18 -18 -18
-16 -17 -18 -18 -18 -18 -18 -18 -18 -17 -18 -18 -18 -18 -18 -18 -18 -18 -18 -18 -18 -18 -18 -18 -18 -18 -18 -18 -19 -19 -19 -19 -19 -18 -18 -18 -18 -18
-18 -19 -19 -19 -18 -17 -17 -18 -18 -18 -18 -18 -18 -19 -18 -18 -18 -18 -19 -18 -19 -19 -19 -19 -19 -18 -18 -18 -19 -19 -19 -19 -19 -19 -18 -18 -18 -18
-19 -19 -19 -19 -18 -18 -18 -18 -18 -18 -18 -18 -18 -18 -18 -18 -18 -18 -19 -19 -19 -19 -19 -19 -19 -19 -18 -18 -19 -20 -20 -19 -19 -19 -19 -19 -19 -19
-19 -19 -20 -19 -19 -19 -19 -19 -19 -19 -19 -19 -18 -18 -18 -18 -18 -18 -19 -19 -19 -19 -19 -19 -19 -19 -19 -19 -19 -19 -19 -20 -20 -20 -19 -19 -19 -19
-20 -20 -20 -21 -20 -19 -19 -19 -19 -19 -19 -19 -19 -18 -18 -19 -19 -19 -19 -19 -19 -19 -19 -19 -19 -19 -19 -19 -19 -19 -19 -19 -20 -20 -20 -20 -19 -19

GFSNE_700_temp_063.txt.gz
Temp
-3 -4 -4 -5 -5 -5 -5 -5 -6 -6 -7 -8 -9 -11 -11 -12 -11 -10 -11 -11 -12 -13 -13 -14 -14 -14 -14 -14 -14 -14 -14 -14 -14 -14 -14 -14 -14 -14
-4 -4 -4 -5 -6 -6 -6 -6 -7 -7 -7 -9 -9 -11 -12 -13 -13 -11 -11 -12 -12 -13 -13 -14 -14 -14 -14 -14 -14 -14 -14 -15 -15 -15 -15 -15 -15 -15
-4 -5 -5 -6 -7 -7 -7 -7 -8 -8 -9 -8 -10 -11 -13 -14 -15 -14 -13 -13 -13 -14 -14 -14 -15 -14 -14 -14 -14 -14 -15 -16 -16 -16 -16 -16 -16 -15
-5 -6 -6 -6 -7 -7 -8 -8 -9 -9 -10 -10 -10 -13 -14 -15 -15 -15 -14 -14 -15 -14 -15 -15 -15 -15 -15 -14 -14 -15 -15 -16 -16 -16 -16 -16 -16 -15
-6 -6 -7 -8 -7 -8 -8 -9 -9 -10 -12 -13 -13 -14 -15 -15 -15 -16 -16 -16 -16 -15 -15 -15 -15 -15 -15 -15 -15 -15 -16 -16 -16 -16 -16 -16 -16 -16
-6 -6 -7 -8 -8 -9 -9 -10 -10 -11 -13 -14 -15 -15 -15 -15 -15 -16 -16 -17 -17 -17 -16 -16 -16 -15 -15 -15 -15 -15 -16 -16 -16 -17 -17 -17 -17 -16
-6 -7 -7 -8 -8 -9 -10 -10 -11 -12 -13 -14 -15 -15 -15 -15 -16 -16 -16 -17 -17 -17 -16 -16 -16 -16 -16 -15 -15 -15 -16 -16 -17 -17 -17 -17 -17 -17
-7 -8 -9 -9 -10 -10 -11 -11 -11 -12 -13 -14 -14 -15 -15 -15 -15 -16 -17 -17 -18 -18 -18 -17 -16 -16 -16 -16 -16 -16 -16 -17 -17 -17 -17 -17 -17 -17
-8 -8 -9 -10 -11 -11 -12 -12 -13 -13 -14 -14 -15 -15 -16 -16 -16 -17 -17 -17 -17 -17 -17 -17 -17 -16 -16 -16 -16 -16 -16 -16 -17 -17 -18 -18 -18 -17
-8 -9 -10 -10 -11 -12 -13 -13 -14 -14 -15 -15 -15 -15 -16 -16 -16 -17 -17 -17 -17 -17 -17 -17 -17 -16 -16 -16 -16 -16 -16 -17 -17 -18 -18 -18 -18 -18
-9 -10 -10 -11 -11 -12 -13 -14 -14 -14 -15 -16 -16 -16 -16 -16 -17 -17 -17 -18 -17 -17 -18 -19 -18 -17 -16 -16 -16 -16 -17 -17 -17 -17 -18 -18 -18 -18
-10 -10 -10 -11 -11 -12 -13 -14 -15 -15 -15 -16 -16 -16 -16 -16 -17 -17 -17 -17 -18 -18 -18 -19 -18 -17 -17 -17 -17 -17 -17 -17 -18 -18 -18 -18 -18 -18
-10 -10 -11 -11 -11 -12 -13 -14 -15 -15 -16 -16 -16 -16 -16 -16 -16 -16 -17 -17 -17 -18 -18 -18 -17 -17 -17 -17 -17 -17 -17 -18 -18 -18 -18 -18 -18 -18
-11 -11 -11 -12 -12 -13 -14 -14 -15 -16 -16 -17 -16 -16 -16 -16 -17 -18 -18 -18 -18 -18 -18 -18 -18 -18 -17 -17 -17 -17 -18 -18 -18 -18 -18 -18 -18 -18
-11 -11 -12 -13 -13 -14 -14 -15 -15 -16 -16 -17 -16 -16 -16 -17 -17 -17 -18 -18 -18 -18 -18 -18 -18 -18 -18 -17 -17 -17 -18 -18 -18 -19 -18 -18 -18 -18
-11 -12 -13 -14 -14 -15 -15 -15 -16 -16 -16 -17 -17 -16 -17 -17 -17 -18 -18 -18 -18 -18 -18 -18 -18 -18 -18 -18 -17 -17 -18 -18 -18 -19 -18 -18 -18 -18
-13 -14 -14 -15 -15 -16 -17 -18 -18 -17 -17 -17 -17 -17 -17 -17 -18 -18 -18 -18 -19 -18 -18 -18 -18 -18 -18 -18 -18 -18 -18 -18 -19 -18 -18 -18 -18 -18
-14 -15 -15 -16 -16 -17 -17 -17 -17 -17 -18 -17 -17 -17 -17 -17 -18 -18 -18 -18 -19 -19 -19 -18 -18 -18 -18 -18 -18 -18 -19 -19 -19 -19 -18 -18 -18 -18
-16 -16 -17 -17 -17 -18 -18 -18 -17 -17 -17 -17 -17 -17 -17 -18 -18 -18 -18 -19 -19 -19 -19 -19 -18 -18 -18 -18 -18 -18 -19 -19 -19 -19 -19 -18 -18 -18
-17 -18 -18 -18 -18 -19 -18 -18 -17 -18 -18 -18 -18 -18 -18 -18 -18 -19 -18 -19 -19 -19 -19 -19 -19 -18 -18 -18 -18 -19 -19 -19 -19 -19 -19 -19 -18 -18
-18 -19 -19 -19 -19 -19 -19 -19 -19 -18 -18 -18 -18 -18 -18 -18 -18 -18 -19 -19 -19 -19 -19 -19 -19 -19 -19 -19 -18 -19 -19 -19 -20 -19 -19 -19 -19 -19
-19 -20 -20 -20 -20 -20 -20 -19 -19 -19 -19 -19 -19 -19 -18 -18 -19 -18 -19 -19 -19 -19 -19 -19 -19 -19 -19 -19 -18 -18 -19 -19 -19 -20 -20 -20 -19 -19
-19 -20 -21 -21 -21 -21 -20 -21 -20 -19 -19 -19 -19 -19 -19 -19 -19 -18 -19 -19 -19 -19 -19 -19 -19 -19 -19 -19 -19 -19 -19 -19 -19 -19 -19 -20 -20 -19

GFSNE_700_temp_069.txt.gz
Temp
-2 -2 -3 -3 -4 -4 -4 -4 -4 -4 -5 -4 -5 -7 -8 -8 -8 -9 -9 -10 -11 -11 -12 -12 -12 -13 -13 -13 -13 -13 -14 -14 -14 -14 -14 -14 -14 -14
-2 -3 -3 -3 -4 -4 -4 -5 -5 -5 -5 -5 -6 -7 -8 -9 -10 -10 -10 -11 -12 -13 -13 -13 -13 -14 -14 -14 -15 -15 -15 -15 -15 -15 -15 -14 -14 -14
-3 -3 -3 -3 -4 -5 -5 -5 -5 -6 -6 -6 -7 -8 -8 -9 -10 -11 -11 -12 -13 -14 -14 -14 -14 -15 -15 -15 -15 -16 -16 -15 -15 -15 -15 -15 -14 -15
-3 -3 -4 -5 -6 -6 -6 -6 -6 -7 -7 -7 -8 -9 -9 -10 -10 -12 -13 -14 -14 -14 -15 -15 -15 -15 -16 -16 -16 -16 -16 -16 -16 -15 -15 -15 -15 -16
-4 -4 -5 -5 -5 -6 -6 -6 -7 -8 -8 -9 -8 -9 -10 -11 -12 -13 -14 -14 -13 -14 -15 -15 -16 -16 -16 -16 -16 -16 -17 -16 -16 -16 -15 -16 -16 -16
-4 -6 -5 -6 -6 -6 -7 -7 -8 -8 -9 -9 -9 -9 -11 -11 -13 -14 -14 -14 -14 -15 -15 -15 -16 -16 -16 -16 -16 -17 -17 -16 -16 -16 -16 -16 -16 -17
-6 -5 -6 -6 -7 -7 -8 -8 -8 -9 -9 -10 -10 -11 -11 -12 -14 -14 -14 -14 -14 -15 -15 -16 -16 -16 -16 -16 -17 -17 -17 -17 -16 -16 -16 -16 -16 -17
-6 -6 -7 -7 -7 -8 -8 -9 -9 -10 -10 -11 -11 -11 -11 -12 -13 -14 -15 -15 -15 -15 -16 -15 -16 -16 -16 -17 -17 -17 -17 -17 -17 -16 -16 -16 -17 -17
-6 -7 -7 -7 -8 -8 -8 -9 -9 -10 -11 -11 -11 -11 -12 -13 -14 -15 -15 -15 -15 -15 -16 -16 -16 -16 -16 -17 -17 -17 -17 -17 -17 -17 -17 -17 -17 -18
-7 -7 -7 -8 -8 -8 -9 -9 -10 -10 -10 -11 -12 -12 -12 -13 -15 -15 -16 -16 -16 -15 -16 -16 -16 -16 -16 -17 -17 -17 -17 -17 -17 -17 -17 -17 -17 -18
-7 -8 -8 -9 -9 -9 -9 -9 -10 -10 -10 -11 -11 -12 -13 -13 -14 -15 -16 -16 -16 -15 -16 -16 -16 -16 -16 -17 -17 -17 -18 -18 -17 -17 -17 -17 -18 -18
-8 -8 -9 -9 -10 -10 -10 -10 -10 -10 -10 -10 -11 -11 -12 -13 -14 -15 -16 -16 -16 -16 -16 -17 -17 -17 -17 -17 -17 -18 -18 -18 -18 -17 -17 -18 -18 -18
-8 -9 -10 -10 -10 -11 -11 -11 -11 -11 -11 -11 -11 -12 -12 -13 -14 -15 -16 -17 -16 -16 -16 -17 -17 -17 -17 -17 -17 -18 -18 -18 -18 -17 -17 -18 -18 -19
-9 -10 -10 -10 -11 -11 -11 -12 -12 -12 -13 -12 -13 -13 -14 -14 -15 -15 -16 -17 -17 -16 -16 -17 -17 -17 -17 -17 -17 -18 -18 -18 -18 -17 -18 -18 -19 -19
-10 -10 -10 -11 -11 -12 -12 -12 -13 -13 -14 -14 -14 -14 -16 -17 -17 -17 -16 -17 -17 -16 -17 -17 -18 -18 -18 -18 -17 -18 -18 -18 -18 -17 -18 -18 -19 -19
-11 -11 -11 -12 -12 -12 -13 -13 -14 -15 -15 -15 -15 -16 -17 -17 -17 -17 -17 -17 -17 -17 -17 -18 -18 -18 -18 -18 -18 -18 -18 -18 -18 -18 -18 -19 -19 -18
-11 -12 -12 -13 -13 -13 -13 -14 -15 -16 -16 -17 -17 -17 -17 -17 -17 -17 -17 -17 -17 -17 -17 -18 -18 -18 -18 -18 -18 -18 -18 -18 -18 -18 -19 -19 -19 -19
-12 -13 -13 -13 -14 -14 -14 -15 -15 -16 -17 -18 -18 -18 -18 -17 -17 -17 -17 -17 -18 -18 -18 -18 -19 -19 -19 -18 -19 -18 -18 -18 -18 -19 -19 -19 -19 -19
-13 -14 -14 -14 -15 -15 -15 -16 -16 -17 -18 -18 -18 -18 -18 -17 -17 -17 -18 -18 -18 -18 -18 -18 -19 -19 -19 -19 -19 -19 -19 -18 -18 -19 -19 -19 -19 -19
-14 -15 -15 -15 -16 -16 -17 -17 -18 -18 -19 -19 -19 -18 -19 -18 -18 -18 -18 -18 -18 -18 -18 -18 -19 -19 -19 -19 -19 -19 -19 -19 -19 -19 -19 -20 -20 -20
-15 -16 -16 -16 -17 -18 -18 -19 -19 -19 -19 -20 -20 -19 -19 -19 -19 -18 -18 -18 -18 -18 -18 -19 -19 -19 -19 -19 -19 -19 -19 -19 -19 -19 -19 -19 -20 -20
-16 -16 -17 -17 -18 -19 -19 -20 -20 -20 -20 -21 -21 -20 -20 -19 -19 -19 -19 -19 -19 -19 -19 -19 -19 -19 -19 -19 -19 -19 -19 -19 -19 -19 -19 -19 -20 -20
-17 -18 -18 -19 -19 -20 -20 -20 -21 -21 -21 -21 -21 -21 -20 -20 -19 -19 -19 -19 -19 -19 -19 -19 -19 -20 -20 -20 -20 -19 -19 -19 -19 -19 -19 -19 -20 -21

GFSNE_700_temp_075.txt.gz
Temp
-1 -1 -1 -2 -2 -2 -2 -3 -4 -4 -4 -3 -4 -5 -5 -5 -5 -5 -5 -6 -7 -7 -8 -9 -9 -10 -11 -12 -12 -13 -13 -14 -14 -14 -14 -15 -15 -15
-0 -1 -1 -2 -2 -2 -3 -4 -5 -4 -4 -4 -4 -5 -5 -5 -6 -6 -6 -6 -7 -8 -8 -9 -10 -11 -12 -12 -13 -13 -14 -14 -14 -14 -15 -15 -15 -16
-1 -2 -1 -2 -2 -3 -3 -4 -4 -4 -4 -4 -4 -5 -5 -5 -6 -6 -7 -7 -8 -8 -9 -10 -10 -11 -12 -13 -14 -14 -14 -14 -15 -15 -15 -16 -16 -16
-1 -1 -1 -3 -3 -3 -4 -4 -5 -5 -5 -4 -5 -5 -5 -6 -6 -7 -7 -8 -8 -9 -10 -10 -11 -11 -13 -14 -14 -13 -15 -15 -15 -15 -16 -16 -16 -17
-1 -1 -2 -3 -3 -3 -4 -6 -5 -5 -5 -5 -6 -6 -6 -7 -7 -7 -8 -8 -9 -10 -10 -11 -11 -12 -13 -14 -14 -14 -14 -15 -15 -16 -16 -16 -17 -17
-1 -2 -3 -4 -4 -5 -5 -5 -5 -5 -6 -6 -6 -6 -7 -7 -8 -8 -8 -9 -9 -10 -10 -11 -11 -12 -13 -14 -15 -15 -15 -15 -16 -16 -16 -17 -17 -17
-2 -2 -3 -4 -5 -6 -6 -6 -6 -6 -6 -7 -7 -7 -8 -8 -9 -9 -9 -9 -9 -10 -10 -10 -12 -13 -14 -15 -15 -15 -15 -15 -16 -16 -16 -17 -17 -17
-3 -3 -4 -6 -5 -6 -6 -7 -6 -7 -7 -7 -8 -8 -9 -9 -10 -10 -10 -10 -10 -10 -10 -10 -11 -12 -14 -15 -15 -16 -15 -16 -16 -16 -16 -17 -17 -17
-4 -5 -6 -6 -5 -5 -7 -7 -7 -8 -8 -8 -9 -9 -9 -10 -10 -11 -11 -11 -11 -11 -11 -11 -12 -13 -14 -16 -16 -16 -16 -16 -16 -16 -17 -17 -17 -17
-5 -6 -5 -5 -6 -7 -7 -8 -8 -9 -9 -9 -10 -10 -11 -11 -11 -11 -11 -11 -11 -11 -12 -12 -13 -13 -15 -16 -17 -17 -16 -17 -16 -16 -17 -17 -17 -17
-5 -6 -6 -7 -7 -8 -8 -9 -9 -9 -10 -10 -10 -11 -11 -12 -12 -12 -12 -12 -11 -11 -12 -14 -14 -14 -15 -16 -17 -16 -17 -17 -17 -17 -16 -17 -17 -17
-6 -7 -7 -8 -8 -9 -9 -9 -10 -10 -10 -11 -11 -11 -12 -12 -12 -13 -13 -13 -13 -13 -14 -15 -15 -16 -16 -16 -17 -17 -17 -17 -17 -17 -16 -17 -17 -17
-7 -8 -8 -9 -9 -10 -10 -10 -10 -11 -11 -11 -11 -12 -12 -13 -13 -13 -14 -14 -14 -15 -16 -17 -16 -17 -18 -18 -17 -17 -17 -17 -17 -17 -17 -17 -17 -17
-9 -9 -10 -10 -10 -11 -11 -11 -11 -11 -12 -12 -12 -12 -13 -13 -13 -14 -14 -15 -16 -16 -17 -18 -17 -18 -18 -18 -17 -17 -17 -18 -18 -17 -17 -18 -18 -18
-10 -11 -11 -11 -12 -12 -12 -13 -13 -13 -13 -13 -13 -13 -13 -14 -14 -14 -15 -16 -16 -17 -18 -18 -18 -18 -18 -18 -17 -17 -18 -18 -18 -18 -18 -18 -18 -18
-13 -13 -12 -14 -14 -14 -14 -14 -14 -15 -14 -14 -14 -14 -14 -14 -15 -15 -15 -16 -16 -17 -18 -18 -18 -18 -18 -18 -17 -18 -19 -18 -18 -18 -18 -18 -18 -18
-13 -13 -14 -14 -14 -14 -14 -15 -15 -16 -16 -15 -15 -15 -15 -15 -15 -16 -17 -17 -18 -18 -18 -18 -18 -18 -18 -18 -18 -18 -19 -19 -18 -18 -18 -18 -18 -18
-13 -14 -14 -14 -14 -14 -15 -16 -16 -16 -16 -16 -16 -16 -16 -16 -16 -17 -18 -18 -18 -18 -18 -18 -18 -18 -18 -18 -19 -19 -19 -19 -19 -19 -19 -18 -19 -18
-14 -14 -14 -14 -15 -15 -15 -16 -16 -17 -17 -17 -17 -17 -17 -17 -17 -18 -18 -18 -19 -18 -18 -18 -18 -18 -18 -18 -19 -19 -19 -19 -19 -19 -19 -19 -19 -19
-14 -14 -15 -15 -15 -16 -16 -17 -18 -18 -18 -17 -18 -18 -18 -18 -19 -19 -19 -19 -19 -18 -18 -18 -18 -19 -19 -19 -19 -19 -19 -19 -19 -19 -19 -19 -19 -19
-15 -15 -15 -16 -16 -17 -18 -18 -18 -19 -19 -19 -19 -19 -19 -20 -20 -20 -20 -20 -20 -19 -19 -19 -19 -19 -19 -19 -19 -19 -19 -20 -19 -19 -19 -19 -19 -19
-15 -16 -16 -18 -18 -19 -19 -19 -19 -20 -20 -20 -20 -20 -21 -21 -21 -21 -21 -21 -21 -20 -19 -19 -19 -19 -19 -19 -19 -19 -20 -20 -20 -19 -19 -19 -19 -19
-17 -18 -19 -19 -19 -20 -20 -20 -21 -21 -21 -21 -21 -22 -22 -22 -22 -22 -22 -21 -21 -21 -20 -19 -19 -19 -19 -19 -20 -19 -20 -20 -20 -20 -19 -19 -19 -19